Overview Statistics Trail Chart Weather Telemetry Raw packets
 

This is the latest recevied weather packets stored in our database for station/object HB9FHL-13. If no packets are shown the sender has not sent any weather packets the latest 10 day(s).

<< 6 7 8 9 10 11 12 >>
Time Temp. Humidity Pressure Rain* Wind** Luminosity Snow
1788635397 19.44° C - 1027.2 hPa 0 mm - - -
1788635096 19.44° C - 1026.7 hPa 0 mm - - -
1788634797 20° C - 1028.4 hPa 0 mm - - -
1788634495 19.44° C - 1028.4 hPa 0 mm - - -
1788634194 18.89° C - 1029.9 hPa 0 mm - - -
1788633893 20° C - 1027.4 hPa 0 mm - - -
1788633625 20° C - 1029.8 hPa 0 mm - - -
1788633593 20° C - 1029.8 hPa 0 mm - - -
1788633292 20° C - 1027.7 hPa 0 mm - - -
1788632992 19.44° C - 1026.5 hPa 0 mm - - -
1788632691 20° C - 1029 hPa 0 mm - - -
1788632391 20° C - 1029.4 hPa 0 mm - - -
1788632090 19.44° C - 1029 hPa 0 mm - - -
1788631790 20° C - 1028 hPa 0 mm - - -
1788631489 19.44° C - 1025.5 hPa 0 mm - - -
1788631189 19.44° C - 1026.1 hPa 0 mm - - -
1788630890 20° C - 1028.2 hPa 0 mm - - -
1788630588 19.44° C - 1027.7 hPa 0 mm - - -
1788630287 20° C - 1023.2 hPa 0 mm - - -
1788629987 19.44° C - 1027.9 hPa 0 mm - - -
1788629688 20.56° C - 1026.7 hPa 0 mm - - -
1788629386 19.44° C - 1023.6 hPa 0 mm - - -
1788629086 20° C - 1027.2 hPa 0 mm - - -
1788628785 19.44° C - 1026.3 hPa 0 mm - - -
1788628183 20° C - 1028.1 hPa 0 mm - - -

* Rain since midnight (hover to see other rain measurements)
** Current wind speed in m/s (hover to see current wind gust speed)